Simultaneous Nadir Overpasses (SNOs) Predictions

Prediction of SNOs between LANDSAT-8 and NPP Satellite Orbit:

Table of predicted SNOs for the next 14.0 days since TLE Epoch: 9/19/2014
Index Date (LANDSAT-8) Time (LANDSAT-8) Lat,Lon (LANDSAT-8) SZA (LANDSAT-8 ) Date (NPP) Time (NPP) Lat,Lon (NPP) SZA (NPP ) Distance(km) Time Diff (sec)
1 09/21/2014 17:28:41 -70.80, 95.30 109.84 09/21/2014 17:28:13 -70.79, 95.24 109.85 2.74 28
2 09/21/2014 18:18:09 70.65, -97.29 70.03 09/21/2014 18:18:57 70.66, -97.24 70.03 2.02 48
3 09/24/2014 08:55:40 70.84, 43.61 71.23 09/24/2014 08:54:27 70.86, 43.58 71.25 2.77 73
4 09/24/2014 09:45:10 -70.72,-148.93 108.88 09/24/2014 09:45:08 -70.73,-148.89 108.87 1.89 2
5 09/24/2014 10:34:39 70.51, 18.39 70.93 09/24/2014 10:35:51 70.55, 18.71 70.97 12.60 72
6 09/27/2014 01:12:08 70.79, 159.42 72.22 09/27/2014 01:11:22 70.81, 159.43 72.24 2.62 46
7 09/27/2014 02:01:37 -70.73, -33.03 107.83 09/27/2014 02:02:04 -70.73, -33.11 107.83 2.86 27
8 09/29/2014 16:38:54 -71.58, 108.93 105.96 09/29/2014 16:37:47 -71.66, 106.42 105.87 88.63 67
9 09/29/2014 17:28:34 70.77, -84.71 73.24 09/29/2014 17:28:16 70.77, -84.72 73.24 0.60 18
10 09/29/2014 18:18:04 -70.66, 82.75 106.86 09/29/2014 18:18:58 -70.68, 82.74 106.84 2.18 54
11 10/02/2014 08:55:34 -70.85,-136.35 105.66 10/02/2014 08:54:27 -70.84,-136.38 105.66 1.05 67
12 10/02/2014 09:45:01 70.74, 31.12 74.25 10/02/2014 09:45:11 70.73, 31.11 74.24 0.78 10
13 10/02/2014 10:34:36 -70.36,-161.81
